Location: B�rgermoos
(47.6500°N, 9.0667°E)
Time: 09:23:27
(UTC+00:00)

A-11 Canister half - Pass Details

Date: 10 August 2021
Orbit: 1526 x 1683 km, 47.3° (Epoch: 20 September)

Event Time Altitude Azimuth Distance (km) Brightness Sun altitude
Rises 13:06:30 0° 286° (WNW) 4,937 11.9 52.0°
Reaches altitude 10° 13:09:42 10° 284° (WNW) 3,941 11.5 51.6°
Maximum altitude 13:19:43 69° 204° (SSW) 1,748 11.0 50.5°
Drops below altitude 10° 13:29:26 10° 124° (SE) 3,833 11.1 49.3°
Sets 13:32:31 0° 122° (ESE) 4,796 11.5 48.9°
